Weather History for Bentonville, AR

Change the Weather History Date:

Friday, January 3, 2014

  Actual Average Record
Temperature  
Mean Temperature 26 °F -  
Max Temperature 41 °F 43 °F 73 °F (2009)
Min Temperature 12 °F 23 °F -2 °F (1979)
Degree Days  
Heating Degree Days 38    
Moisture  
Dew Point 13 °F    
Average Humidity 57    
Maximum Humidity 79    
Minimum Humidity 39    
Precipitation  
Precipitation 0.00 in - - ()
Sea Level Pressure  
Sea Level Pressure 30.20 in    
Wind  
Wind Speed 8 mph (SSE)    
Max Wind Speed 18 mph    
Max Gust Speed 28 mph    
Visibility 10 miles    
Events      
Averages and records for this station are not official NWS values.
T = Trace of Precipitation, MM = Missing Value Source: NWS Daily Summary

Daily Weather History Graph

Daily Weather History Graph

Search for Another Location

Airport:

Trip Planner

Search our weather history database for the weather conditions in past years. The results will help you decide how hot, cold, wet, or windy it might be!

Date:

Astronomy

Jan. 03, 2014 Rise Set
Actual Time 7:28 AM CST 5:14 PM CST
Civil Twilight 7:00 AM CST 5:42 PM CST
Nautical Twilight 6:28 AM CST 6:15 PM CST
Astronomical Twilight 5:56 AM CST 6:46 PM CST
Moon 9:00 AM CST (1/3) 8:18 PM CST (1/3)
Length of Visible Light 10h 42m
Length of Day
9h 45m
Waxing Crescent, 8% of the Moon is Illuminated
Jan 3
Waxing Crescent
Jan 7
First Quarter
Jan 15
Full
Jan 23
Last Quarter
Jan 30
New

Hourly Weather History & Observations

Time (CST) Temp. Windchill Dew Point Humidity Pressure Visibility Wind Dir Wind Speed Gust Speed Precip Events Conditions
12:15 AM 15.8 °F 8.6 °F 6.8 °F 68% 30.42 in 10.0 mi East 4.6 mph - N/A   Clear
12:35 AM 15.8 °F 10.2 °F 5.0 °F 62% 30.41 in 10.0 mi East 3.5 mph - N/A   Clear
12:55 AM 15.8 °F 10.2 °F 5.0 °F 62% 30.40 in 10.0 mi NE 3.5 mph - N/A   Clear
1:15 AM 15.8 °F - 6.8 °F 68% 30.41 in 10.0 mi Calm Calm - N/A   Clear
1:35 AM 14.0 °F - 6.8 °F 73% 30.41 in 10.0 mi Calm Calm - N/A   Clear
1:55 AM 14.0 °F - 6.8 °F 73% 30.41 in 10.0 mi Calm Calm - N/A   Clear
2:15 AM 14.0 °F 8.2 °F 6.8 °F 73% 30.41 in 10.0 mi ESE 3.5 mph - N/A   Clear
2:35 AM 12.2 °F 4.3 °F 6.8 °F 79% 30.42 in 10.0 mi SSE 4.6 mph - N/A   Clear
2:55 AM 12.2 °F 6.1 °F 5.0 °F 73% 30.41 in 10.0 mi SSE 3.5 mph - N/A   Clear
3:15 AM 12.2 °F 6.1 °F 6.8 °F 79% 30.41 in 10.0 mi SE 3.5 mph - N/A   Clear
3:35 AM 14.0 °F 6.5 °F 6.8 °F 73% 30.40 in 10.0 mi SE 4.6 mph - N/A   Clear
3:55 AM 12.2 °F 6.1 °F 6.8 °F 79% 30.39 in 10.0 mi SE 3.5 mph - N/A   Clear
4:15 AM 14.0 °F 2.9 °F 6.8 °F 73% 30.38 in 10.0 mi SE 8.1 mph - N/A   Clear
4:35 AM 14.0 °F 5.1 °F 6.8 °F 73% 30.37 in 10.0 mi SE 5.8 mph - N/A   Clear
4:55 AM 14.0 °F 5.1 °F 6.8 °F 73% 30.37 in 10.0 mi SE 5.8 mph - N/A   Clear
5:15 AM 14.0 °F 5.1 °F 6.8 °F 73% 30.36 in 10.0 mi SE 5.8 mph - N/A   Clear
5:35 AM 14.0 °F 6.5 °F 6.8 °F 73% 30.36 in 10.0 mi SE 4.6 mph - N/A   Clear
5:55 AM 15.8 °F 7.2 °F 8.6 °F 73% 30.36 in 10.0 mi SE 5.8 mph - N/A   Clear
6:15 AM 15.8 °F 7.2 °F 8.6 °F 73% 30.35 in 10.0 mi SSE 5.8 mph - N/A   Clear
6:35 AM 15.8 °F 6.1 °F 8.6 °F 73% 30.35 in 10.0 mi SE 6.9 mph - N/A   Clear
6:55 AM 15.8 °F 7.2 °F 8.6 °F 73% 30.35 in 10.0 mi SE 5.8 mph - N/A   Clear
7:15 AM 15.8 °F 5.1 °F 8.6 °F 73% 30.34 in 10.0 mi SE 8.1 mph - N/A   Clear
7:35 AM 15.8 °F 5.1 °F 8.6 °F 73% 30.33 in 10.0 mi SE 8.1 mph - N/A   Clear
7:55 AM 17.6 °F 9.3 °F 8.6 °F 68% 30.33 in 10.0 mi SSE 5.8 mph - N/A   Clear
8:15 AM 17.6 °F 8.2 °F 10.4 °F 73% 30.33 in 10.0 mi SSE 6.9 mph - N/A   Clear
8:35 AM 19.4 °F 11.5 °F 10.4 °F 68% 30.33 in 10.0 mi SE 5.8 mph - N/A   Clear
8:55 AM 21.2 °F 11.7 °F 10.4 °F 63% 30.33 in 10.0 mi SSE 8.1 mph - N/A   Clear
9:15 AM 23.0 °F 13.9 °F 12.2 °F 63% 30.32 in 10.0 mi SSE 8.1 mph - N/A   Clear
9:35 AM 24.8 °F 14.0 °F 12.2 °F 59% 30.31 in 10.0 mi SSE 11.5 mph - N/A   Clear
9:55 AM 26.6 °F 16.8 °F 14.0 °F 59% 30.31 in 10.0 mi SSE 10.4 mph - N/A   Clear
10:15 AM 28.4 °F 19.7 °F 14.0 °F 55% 30.30 in 10.0 mi SSE 9.2 mph - N/A   Clear
10:35 AM 30.2 °F 21.9 °F 15.8 °F 55% 30.30 in 10.0 mi South 9.2 mph - N/A   Clear
10:55 AM 32.0 °F 23.0 °F 15.8 °F 51% 30.28 in 10.0 mi South 11.5 mph - N/A   Clear
11:15 AM 33.8 °F 25.8 °F 17.6 °F 52% 30.28 in 10.0 mi South 10.4 mph - N/A   Clear
11:35 AM 35.6 °F 27.5 °F 17.6 °F 48% 30.27 in 10.0 mi SSW 11.5 mph - N/A   Clear
11:55 AM 35.6 °F 27.5 °F 17.6 °F 48% 30.25 in 10.0 mi South 11.5 mph 16.1 mph N/A   Clear
12:15 PM 37.4 °F 28.5 °F 17.6 °F 45% 30.24 in 10.0 mi South 15.0 mph 20.7 mph N/A   Clear
12:35 PM 37.4 °F 29.3 °F 17.6 °F 45% 30.22 in 10.0 mi South 12.7 mph 18.4 mph N/A   Clear
12:55 PM 39.2 °F 32.0 °F 17.6 °F 42% 30.20 in 10.0 mi South 11.5 mph 17.3 mph N/A   Clear
1:15 PM 39.2 °F 30.8 °F 17.6 °F 42% 30.18 in 10.0 mi South 15.0 mph - N/A   Clear
1:35 PM 39.2 °F 30.5 °F 19.4 °F 45% 30.17 in 10.0 mi South 16.1 mph 21.9 mph N/A   Clear
1:55 PM 39.2 °F 30.5 °F 17.6 °F 42% 30.16 in 10.0 mi South 16.1 mph 23.0 mph N/A   Clear
2:15 PM 39.2 °F 31.2 °F 17.6 °F 42% 30.14 in 10.0 mi South 13.8 mph 25.3 mph N/A   Clear
2:35 PM 41.0 °F 33.9 °F 17.6 °F 39% 30.13 in 10.0 mi South 12.7 mph 20.7 mph N/A   Clear
2:55 PM 41.0 °F 32.8 °F 17.6 °F 39% 30.12 in 10.0 mi South 16.1 mph 25.3 mph N/A   Clear
3:15 PM 41.0 °F 33.1 °F 17.6 °F 39% 30.11 in 10.0 mi South 15.0 mph 21.9 mph N/A   Clear
3:35 PM 39.2 °F 29.8 °F 17.6 °F 42% 30.10 in 10.0 mi South 18.4 mph 23.0 mph N/A   Clear
3:55 PM 39.2 °F 30.2 °F 17.6 °F 42% 30.09 in 10.0 mi South 17.3 mph 23.0 mph N/A   Clear
4:15 PM 39.2 °F 31.2 °F 15.8 °F 39% 30.09 in 10.0 mi South 13.8 mph 19.6 mph N/A   Clear
4:35 PM 37.4 °F 29.8 °F 15.8 °F 41% 30.08 in 10.0 mi South 11.5 mph 16.1 mph N/A   Clear
4:55 PM 37.4 °F 29.8 °F 15.8 °F 41% 30.07 in 10.0 mi South 11.5 mph 20.7 mph N/A   Clear
5:15 PM 35.6 °F 26.2 °F 15.8 °F 44% 30.05 in 10.0 mi South 15.0 mph 23.0 mph N/A   Clear
5:35 PM 33.8 °F 23.5 °F 15.8 °F 48% 30.04 in 10.0 mi South 16.1 mph 24.2 mph N/A   Clear
5:55 PM 33.8 °F 24.3 °F 15.8 °F 48% 30.03 in 10.0 mi SSE 13.8 mph - N/A   Clear
6:15 PM 33.8 °F 24.8 °F 15.8 °F 48% 30.02 in 10.0 mi SSE 12.7 mph 19.6 mph N/A   Clear
6:35 PM 33.8 °F 24.3 °F 15.8 °F 48% 30.01 in 10.0 mi SSE 13.8 mph 19.6 mph N/A   Clear
6:55 PM 32.0 °F 22.1 °F 15.8 °F 51% 30.01 in 10.0 mi SSE 13.8 mph - N/A   Clear
7:15 PM 32.0 °F 23.0 °F 15.8 °F 51% 30.00 in 10.0 mi SSE 11.5 mph - N/A   Clear
7:35 PM 32.0 °F 22.5 °F 15.8 °F 51% 29.99 in 10.0 mi SSE 12.7 mph - N/A   Clear
7:55 PM 30.2 °F 19.8 °F 15.8 °F 55% 29.97 in 10.0 mi SSE 13.8 mph - N/A   Clear
8:15 PM 33.8 °F 23.5 °F 15.8 °F 48% 29.97 in 10.0 mi South 16.1 mph 20.7 mph N/A   Clear
8:35 PM 33.8 °F 23.9 °F 15.8 °F 48% 29.96 in 10.0 mi South 15.0 mph 21.9 mph N/A   Clear
8:55 PM 33.8 °F 23.5 °F 15.8 °F 48% 29.95 in 10.0 mi South 16.1 mph 27.6 mph N/A   Clear
9:15 PM 33.8 °F 23.5 °F 15.8 °F 48% 29.95 in 10.0 mi South 16.1 mph 20.7 mph N/A   Clear
9:35 PM 33.8 °F 24.3 °F 15.8 °F 48% 29.96 in 10.0 mi South 13.8 mph 20.7 mph N/A   Clear
9:55 PM 33.8 °F 24.8 °F 15.8 °F 48% 29.96 in 10.0 mi South 12.7 mph 18.4 mph N/A   Clear
10:15 PM 33.8 °F 25.8 °F 15.8 °F 48% 29.96 in 10.0 mi South 10.4 mph - N/A   Clear
10:35 PM 33.8 °F 25.8 °F 15.8 °F 48% 29.96 in 10.0 mi South 10.4 mph - N/A   Clear
10:55 PM 33.8 °F 25.8 °F 15.8 °F 48% 29.96 in 10.0 mi South 10.4 mph - N/A   Clear
11:15 PM 33.8 °F 25.8 °F 15.8 °F 48% 29.96 in 10.0 mi South 10.4 mph - N/A   Clear
11:35 PM 33.8 °F 27.0 °F 15.8 °F 48% 29.96 in 10.0 mi South 8.1 mph - N/A   Clear
11:55 PM 33.8 °F 27.0 °F 15.8 °F 48% 29.96 in 10.0 mi South 8.1 mph - N/A   Clear